Location: Asheville, NC
(35.6000°N, 82.5500°W)
Time: 00:07:41
(UTC-05:00)

LilacSat-2 - Pass Details

Date: 11 January 2018
Orbit: 515 x 537 km, 97.5° (Epoch: 19 January)

Event Time Altitude Azimuth Distance (km) Brightness Sun altitude
Rises 06:19:47 0° 15° (NNE) 2,659 ? -16.0°
Reaches altitude 10° 06:21:55 10° 19° (NNE) 1,762 ? -15.6°
Maximum altitude 06:25:41 63° 100° (E) 582 ? -14.9°
Drops below altitude 10° 06:29:24 10° 183° (S) 1,738 ? -14.2°
Sets 06:31:29 0° 186° (S) 2,618 ? -13.8°
